Regional Weather Roundup
Issued by NWS Boston, MA

Home | Current Version | Previous Version | Text Only | Print | Product List | Glossary On
Versions: 1 2 3 4 5 6 7 8 9 10 11 12 13 14 15 16 17 18 19 20 21 22 23 24 25 26 27 28 29 30 31 32 33 34 35 36 37 38 39 40 41 42 43 44 45 46 47 48 49 50
000
ASUS41 KBOX 050010
RWRBOX

REGIONAL WEATHER ROUNDUP
NATIONAL WEATHER SERVICE TAUNTON MA
800 PM EDT TUE AUG 04 2015

NOTE:  "FAIR" INDICATES FEW OR NO CLOUDS BELOW 12,000 FEET WITH NO
SIGNIFICANT WEATHER AND/OR OBSTRUCTIONS TO VISIBILITY.  THE FOLLOWING
OBSERVATION LOCATIONS DO NOT REPORT PRESENT WEATHER...PROVINCETOWN...
SMITHFIELD...BLOCK ISLAND...KEENE...AND OXFORD.

MAZALL-050100-
EASTERN MASSACHUSETTS

CITY           SKY/WX    TMP DP  RH WIND       PRES   REMARKS
BOSTON         MOCLDY    71  64  78 SW8G18    29.84S THUNDER
6HR MIN TEMP:  66; 6HR MAX TEMP:  89; 6HR PCP:  0.48;

BEVERLY        LGT RAIN  70  66  87 CALM      29.82S
LAWRENCE       MOCLDY    71  66  84 S6        29.85R
BEDFORD        PTCLDY    68  65  90 CALM      29.83R
BLUE HILL        N/A     67  65  93 NW7       29.85S
NORWOOD        TSTM      70  68  93 SE6       29.84R
MARSHFIELD     PTCLDY    72  68  88 CALM      29.85S
PLYMOUTH       PTCLDY    74  66  76 CALM      29.85R
TAUNTON        PTCLDY    72  66  81 CALM      29.84R
NEW BEDFORD    CLEAR     76  72  87 W9        29.84R
$$

MAZALL-050100-
CAPE COD AND THE ISLANDS

CITY           SKY/WX    TMP DP  RH WIND       PRES   REMARKS
FALMOUTH       CLOUDY    77  73  88 SW16      29.85S FOG
HYANNIS        PTCLDY    77  73  87 SW13      29.84R
CHATHAM        CLOUDY    75  74  96 SW13G23   29.87R FOG
PROVINCETOWN   PTCLDY    72  61  68 S7        29.84S
NANTUCKET      CLOUDY    75  72  90 SW15      29.88R FOG
MARTHAS VNYRD  CLOUDY    75  73  93 SW10      29.86S FOG
$$

MAZALL-050100-
CENTRAL AND WESTERN MASSACHUSETTS

CITY           SKY/WX    TMP DP  RH WIND       PRES   REMARKS
WORCESTER      PTCLDY    69  66  90 SW6       29.89R
6HR MIN TEMP:  64; 6HR MAX TEMP:  83; 6HR PCP:  0.31;

FITCHBURG      MOCLDY    71  67  87 CALM      29.86R
ORANGE         MOCLDY    74  62  66 W6        29.87R
SPRINGFIELD    LGT RAIN  72  66  83 W2        29.86S
WESTFIELD      LGT RAIN  72  64  76 N6        29.86R
NORTH ADAMS    MOCLDY    71  57  61 CALM      29.89R
PITTSFIELD     MOCLDY    68  61  78 SW5       29.90R
$$

RIZALL-050100-
RHODE ISLAND

CITY           SKY/WX    TMP DP  RH WIND       PRES   REMARKS
PROVIDENCE     PTCLDY    79  60  52 N7        29.85R
6HR MIN TEMP:  79; 6HR MAX TEMP:  87;

NEWPORT        CLOUDY    74  72  93 S9        29.85R FOG
BLOCK ISLAND     N/A     73  73 100 SW15      29.87S
SMITHFIELD     PTCLDY    70  64  83 CALM      29.86S
WESTERLY       CLEAR     77  71  82 S13G20    29.85R
$$

CTZALL-050100-
CONNECTICUT

CITY           SKY/WX    TMP DP  RH WIND       PRES   REMARKS
BRADLEY INTL   PTCLDY    76  62  62 N7        29.86R
6HR MIN TEMP:  76; 6HR MAX TEMP:  89; 6HR PCP: TRACE;

HARTFORD       MOCLDY    80  65  59 NE10      29.85R
BRIDGEPORT     CLEAR     85  57  38 W7        29.84R
DANBURY        CLEAR     78  59  51 W3        29.88R
GROTON         CLEAR     75  70  84 SW9       29.83R
NEW HAVEN      PTCLDY    84  60  44 VRB5      29.84R
CHESTER        NOT AVBL
MERIDEN        CLEAR     82  58  43 CALM      29.84R
WILLIMANTIC    CLOUDY    74  66  76 W5        29.85R
OXFORD         PTCLDY    79  61  53 W7        29.90R
$$

MEZ002-015-021-024-NHZ003-005-008-011-012-014-VTZ005-008-050100-
NORTHERN NEW ENGLAND

CITY           SKY/WX    TMP DP  RH WIND       PRES   REMARKS
PORTLAND ME    PTCLDY    64  62  93 W5        29.82S
6HR MIN TEMP:  61; 6HR MAX TEMP:  74; 6HR PCP:  0.05;

BANGOR ME      CLOUDY    64  62  93 CALM      29.80F
CONCORD NH     PTCLDY    73  57  57 NW7       29.86R
MANCHESTER NH  MOCLDY    76  58  53 N7        29.83R
NASHUA NH      PTCLDY    75  69  81 N5        29.85R
PORTSMOUTH NH  MOCLDY    73  65  78 NE3       29.82R
JAFFREY NH     CLOUDY    74  61  63 SW5       29.89R
KEENE NH       MOCLDY    75  54  46 CALM      29.86R
BURLINGTON VT  PTCLDY    72  55  55 NW5       29.83R
MT. WASHINGTON NOT AVBL
$$

NYZ052-076-050100-
EASTERN NEW YORK

CITY           SKY/WX    TMP DP  RH WIND       PRES   REMARKS
ALBANY         MOCLDY    75  55  49 NW12      29.88R
6HR MIN TEMP:  74; 6HR MAX TEMP:  84; 6HR PCP: TRACE;

NEW YORK CITY  PTCLDY    86  50  28 W14       29.86R
6HR MIN TEMP:  86; 6HR MAX TEMP:  91;

$$

ANZALL-050100-
MARINE OBSERVATIONS

STATION/POSITION TIME  TEMP    WIND        PRES    VSBY  WAVE
                       AIR SEA DIR/SP/G                  HT/PER
                 (UTC) (F)     (DEG/KT/KT) (MB)    (MI)  (FT/S)
BOSTON BUOY      2350   69 69  170/  8/ 10 1010.6R         1/ 8
BUZZARDS BAY     2300          220/ 18/ 19 1011.2R
NANTUCKET SOUND  2350   75 72  220/ 16/ 17 1010.7R         2/ 3
MASS BAY-STELLWA 2304   68 65  210/  8/  8   N/A    1 7/8  2/ 8
ISLE OF SHOALS   2300   67      10/ 16/ 21 1009.4R
S OF BLOCK IS    2308      75                N/A           6/ 8
$$

......................KEY.........................
  SKY/WX - SKY CONDITION/PRESENT WEATHER
  TMP    - TEMPERATURE IN FAHRENHEIT
  DWPT   - DEWPOINT IN FAHRENHEIT
  RH     - RELATIVE HUMIDITY IN PERCENT
  WIND   - DIRECTION AND SPEED IN MPH
  PRES   - MEAN SEA LEVEL PRESSURE IN INCHES OF HG
  WCI    - WIND CHILL INDEX
  VSB    - VISIBILITY IN MILES
  HX     - HEAT INDEX
  TC     - TEMPERATURE IN CELSIUS
  VRB    - VARIABLE WIND DIRECTION
  N/A    - NOT AVAILABLE



USA.gov is the U.S. government's official web portal to all federal, state and local government web resources and services.